Location: Newark
(16.3678°N, 77.8722°E)
Time: 00:27:29
(UTC+00:00)

S-56A Canister/Altair - Pass Details

Date: 18 December 2019
Orbit: 634 x 2498 km, 38.9° (Epoch: 26 January)

Event Time Altitude Azimuth Distance (km) Brightness Sun altitude
Rises 07:55:46 0° 310° (NW) 6,106 12.0 46.6°
Reaches altitude 10° 08:00:00 10° 315° (NW) 5,151 11.7 46.2°
Maximum altitude 08:14:33 51° 28° (NNE) 2,798 10.5 44.6°
Drops below altitude 10° 08:26:30 10° 101° (E) 4,313 11.3 43.1°
Sets 08:29:40 0° 106° (ESE) 5,082 11.6 42.7°
